This is the latest recevied weather packets stored in our database for station/object KG7BDA. If no packets are shown the sender has not sent any weather packets the latest 10 day(s).
| Time | Temp. | Humidity | Pressure | Rain* | Wind** | Luminosity | Snow |
|---|---|---|---|---|---|---|---|
| 1778123724 | 17.22° C | 60% | 1014.7 hPa | 0 mm | - | - | - |
| 1778123364 | 17.78° C | 57% | 1014.8 hPa | 0 mm | - | - | - |
| 1778123098 | 18.89° C | 53% | 1014.9 hPa | 0 mm | - | - | - |
| 1778123004 | 18.89° C | 53% | 1014.9 hPa | 0 mm | - | - | - |
| 1778122643 | 20° C | 45% | 1014.8 hPa | 0 mm | - | - | - |
| 1778122283 | 20° C | 45% | 1014.9 hPa | 0 mm | - | - | - |
| 1778121924 | 19.44° C | 47% | 1014.8 hPa | 0 mm | - | - | - |
| 1778121563 | 18.89° C | 51% | 1015 hPa | 0 mm | - | - | - |
| 1778121301 | 19.44° C | 55% | 1015 hPa | 0 mm | - | - | - |
| 1778121203 | 19.44° C | 55% | 1015 hPa | 0 mm | - | - | - |
| 1778120844 | 20° C | 52% | 1015.1 hPa | 0 mm | - | - | - |
| 1778120483 | 20.56° C | 50% | 1015.2 hPa | 0 mm | - | - | - |
| 1778120123 | 20.56° C | 46% | 1015.3 hPa | 0 mm | - | - | - |
| 1778119763 | 21.11° C | 48% | 1015.3 hPa | 0 mm | - | - | - |
| 1778119404 | 21.11° C | 42% | 1015.3 hPa | 0 mm | - | - | - |
| 1778119044 | 21.11° C | 40% | 1015.5 hPa | 0 mm | - | - | - |
| 1778118682 | 21.67° C | 41% | 1015.4 hPa | 0 mm | - | - | - |
| 1778118324 | 21.67° C | 40% | 1015.5 hPa | 0 mm | - | - | - |
| 1778117963 | 22.22° C | 40% | 1015.4 hPa | 0 mm | - | - | - |
| 1778117604 | 22.22° C | 39% | 1015.6 hPa | 0 mm | - | - | - |
| 1778117243 | 22.22° C | 39% | 1015.6 hPa | 0 mm | - | - | - |
| 1778116884 | 22.78° C | 37% | 1015.7 hPa | 0 mm | - | - | - |
| 1778116524 | 22.78° C | 34% | 1015.8 hPa | 0 mm | - | - | - |
| 1778116163 | 22.78° C | 34% | 1015.9 hPa | 0 mm | - | - | - |
| 1778115804 | 23.33° C | 32% | 1015.9 hPa | 0 mm | - | - | - |
* Rain latest hour (hover to see other rain measurements)
** Current wind speed in m/s (hover to see current wind gust speed)